Location: ??????
(41.3164°N, 22.6615°E)
Time: 02:12:50
(UTC+00:00)

CAS-4A - Pass Details

Date: 08 July 2022
Orbit: 521 x 537 km, 43.0° (Epoch: 10 August)

Event Time Altitude Azimuth Distance (km) Brightness Sun altitude
Rises 02:11:35 0° 285° (WNW) 2,644 ? -8.8°
Reaches altitude 10° 02:13:51 10° 280° (W) 1,756 ? -8.5°
Maximum altitude 02:17:44 50° 204° (SSW) 670 ? -7.9°
Drops below altitude 10° 02:21:38 10° 129° (SE) 1,758 ? -7.3°
Sets 02:23:54 0° 124° (SE) 2,647 ? -7.0°
